Date String (YYYY-MM-DD hh:mm:ss) UTC,Instrument flags,Ambient pressure (hPa),Sample flow (lpm),Bypass flow (lpm),Sample temperature (°C),Ambient temperature (°C),ASC tube jacket temperature (°C),LED temperature (°C),Box temperature (°C),Sample RH (%),Span deviation,Mass concentration (μg/m³),Mass concentration (μg/m³),Mass concentration (μg/m³)
DateTimeUTC,F1_M11,P_M11,Q1_M11,Q2_M11,T1_M11,T2_M11,T3_M11,T4_M11,T5_M11,U1_M11,ZSPAN_M11,X0_M11,X2_M11,X1_M11
2022-07-03 18:00:00,,0825.1,5.00,0.00,29.3,28.2,00.0,38.0,31.3,25.2,0000.0,0010.29,0004.61,0003.87
2022-07-03 18:01:00,,0825.1,5.00,0.00,29.3,28.3,00.0,38.0,31.3,25.3,0000.0,0010.92,0004.65,0003.87
2022-07-03 18:02:00,,0825.0,5.01,0.00,29.4,28.1,00.0,38.0,31.3,25.5,0000.0,0011.27,0004.67,0003.90
2022-07-03 18:03:00,,0825.0,5.00,0.00,29.3,27.4,00.0,37.9,31.2,25.9,0000.0,0011.73,0004.73,0003.92
2022-07-03 18:04:00,,0825.0,4.99,0.00,29.3,27.2,00.0,37.9,31.1,26.0,0000.0,0011.97,0004.76,0003.93
2022-07-03 18:05:00,,0825.1,4.99,0.00,29.3,27.2,00.0,37.9,31.1,26.5,0000.0,0011.70,0004.80,0003.96
2022-07-03 18:06:00,,0825.1,5.01,0.00,29.2,27.4,00.0,37.9,31.1,27.0,0000.0,0011.91,0004.85,0004.00
2022-07-03 18:07:00,,0825.1,5.00,0.00,29.2,27.5,00.0,38.0,31.1,26.9,0000.0,0012.34,0004.92,0004.04
2022-07-03 18:08:00,,0825.1,5.00,0.00,29.2,27.7,00.0,38.0,31.2,27.6,0000.0,0012.28,0004.94,0004.07
2022-07-03 18:09:00,,0825.1,5.00,0.00,29.3,27.9,00.0,38.0,31.2,26.6,0000.0,0011.09,0004.95,0004.10
2022-07-03 18:10:00,,0825.0,5.00,0.00,29.3,28.1,00.0,38.0,31.3,26.2,0000.0,0011.60,0004.99,0004.12
2022-07-03 18:11:00,,0825.0,5.00,0.00,29.3,28.2,00.0,38.0,31.3,26.4,0000.0,0012.77,0004.98,0004.16
2022-07-03 18:12:00,,0824.9,5.00,0.00,29.4,28.1,00.0,38.0,31.3,26.1,0000.0,0012.48,0004.99,0004.18
2022-07-03 18:13:00,,0824.9,5.00,0.00,29.3,27.5,00.0,38.0,31.2,25.8,0000.0,0012.28,0004.99,0004.18
2022-07-03 18:14:00,,0824.9,5.01,0.00,29.3,27.2,00.0,37.9,31.2,26.3,0000.0,0012.07,0004.97,0004.18
2022-07-03 18:15:00,,0824.9,5.00,0.00,29.3,27.2,00.0,37.9,31.1,26.5,0000.0,0011.54,0004.96,0004.18
2022-07-03 18:16:00,,0824.9,5.01,0.00,29.2,27.3,00.0,38.0,31.1,26.2,0000.0,0011.49,0004.96,0004.19
2022-07-03 18:17:00,,0824.9,5.00,0.00,29.2,27.5,00.0,38.0,31.1,26.8,0000.0,0011.64,0004.92,0004.20
2022-07-03 18:18:00,,0824.9,5.00,0.00,29.2,27.7,00.0,38.0,31.2,26.7,0000.0,0011.57,0004.90,0004.20
2022-07-03 18:19:00,,0824.9,5.00,0.00,29.3,27.9,00.0,38.0,31.2,27.0,0000.0,0011.33,0004.88,0004.22
2022-07-03 18:20:00,,0824.9,4.99,0.00,29.3,28.0,00.0,38.0,31.3,27.2,0000.0,0011.29,0004.85,0004.23
2022-07-03 18:21:00,,0824.9,4.99,0.00,29.3,28.2,00.0,38.0,31.3,27.3,0000.0,0011.02,0004.83,0004.25
2022-07-03 18:22:00,,0824.9,5.00,0.00,29.4,28.1,00.0,38.0,31.3,27.0,0000.0,0009.62,0004.87,0004.26
2022-07-03 18:23:00,,0824.9,5.01,0.00,29.3,27.5,00.0,38.0,31.2,27.3,0000.0,0009.37,0004.86,0004.27
2022-07-03 18:24:00,,0824.9,4.99,0.00,29.3,27.1,00.0,37.9,31.1,27.5,0000.0,0009.29,0004.88,0004.29
2022-07-03 18:25:00,,0824.9,5.01,0.00,29.3,27.1,00.0,37.9,31.1,27.6,0000.0,0009.91,0004.96,0004.32
2022-07-03 18:26:00,,0824.9,5.00,0.00,29.2,27.3,00.0,37.9,31.1,27.5,0000.0,0010.22,0005.05,0004.35
2022-07-03 18:27:00,,0824.8,5.00,0.00,29.2,27.4,00.0,38.0,31.1,27.4,0000.0,0010.23,0005.06,0004.35
2022-07-03 18:28:00,,0824.8,5.00,0.00,29.2,27.6,00.0,38.0,31.1,27.4,0000.0,0010.04,0005.09,0004.36
2022-07-03 18:29:00,,0824.8,4.99,0.00,29.3,27.8,00.0,38.0,31.2,27.5,0000.0,0009.81,0005.12,0004.36
2022-07-03 18:30:00,,0824.8,5.00,0.00,29.3,28.0,00.0,38.0,31.3,27.7,0000.0,0010.40,0005.13,0004.38
2022-07-03 18:31:00,,0824.8,5.00,0.00,29.3,28.2,00.0,38.0,31.3,27.4,0000.0,0011.04,0005.14,0004.38
2022-07-03 18:32:00,,0824.8,5.00,0.00,29.4,28.2,00.0,38.0,31.3,26.9,0000.0,0011.19,0005.19,0004.39
2022-07-03 18:33:00,,0824.7,4.99,0.00,29.3,27.6,00.0,38.0,31.3,27.5,0000.0,0011.14,0005.17,0004.40
2022-07-03 18:34:00,,0824.7,5.00,0.00,29.3,27.2,00.0,37.9,31.1,27.6,0000.0,0010.97,0005.18,0004.42
2022-07-03 18:35:00,,0824.7,5.00,0.00,29.3,27.2,00.0,37.9,31.1,27.1,0000.0,0010.95,0005.19,0004.43
2022-07-03 18:36:00,,0824.7,5.00,0.00,29.2,27.3,00.0,37.9,31.1,27.4,0000.0,0010.54,0005.12,0004.42
2022-07-03 18:37:00,,0824.6,4.99,0.00,29.2,27.4,00.0,37.9,31.1,27.6,0000.0,0010.46,0005.02,0004.40
2022-07-03 18:38:00,,0824.6,5.01,0.00,29.2,27.6,00.0,38.0,31.1,28.2,0000.0,0011.07,0005.02,0004.38
2022-07-03 18:39:00,,0824.6,5.00,0.00,29.2,27.8,00.0,38.0,31.2,27.9,0000.0,0011.87,0005.02,0004.40
2022-07-03 18:40:00,,0824.7,5.00,0.00,29.3,28.0,00.0,38.0,31.2,28.1,0000.0,0011.82,0005.02,0004.41
2022-07-03 18:41:00,,0824.6,5.00,0.00,29.3,28.2,00.0,38.0,31.3,27.6,0000.0,0011.27,0005.01,0004.41
2022-07-03 18:42:00,,0824.6,5.00,0.00,29.3,27.9,00.0,38.0,31.3,27.5,0000.0,0010.59,0005.03,0004.41
2022-07-03 18:43:00,,0824.7,4.99,0.00,29.3,27.3,00.0,37.9,31.2,27.8,0000.0,0010.50,0004.98,0004.40
2022-07-03 18:44:00,,0824.6,5.00,0.00,29.3,27.1,00.0,37.9,31.1,28.1,0000.0,0011.14,0004.96,0004.39
2022-07-03 18:45:00,,0824.6,5.00,0.00,29.2,27.1,00.0,37.9,31.0,27.5,0000.0,0011.20,0004.93,0004.38
2022-07-03 18:46:00,,0824.6,5.00,0.00,29.2,27.2,00.0,37.9,31.0,27.7,0000.0,0011.19,0004.94,0004.36
2022-07-03 18:47:00,,0824.6,5.00,0.00,29.2,27.4,00.0,37.9,31.1,27.9,0000.0,0011.11,0004.98,0004.38
2022-07-03 18:48:00,,0824.6,5.00,0.00,29.2,27.6,00.0,37.9,31.1,28.0,0000.0,0011.17,0005.04,0004.41
2022-07-03 18:49:00,,0824.7,5.00,0.00,29.2,27.8,00.0,38.0,31.2,28.7,0000.0,0010.58,0005.06,0004.43
2022-07-03 18:50:00,,0824.7,5.00,0.00,29.3,28.0,00.0,38.0,31.2,27.2,0000.0,0009.67,0005.03,0004.43
2022-07-03 18:51:00,,0824.7,5.00,0.00,29.3,28.2,00.0,38.0,31.3,27.1,0000.0,0009.60,0004.98,0004.40
2022-07-03 18:52:00,,0824.7,5.00,0.00,29.3,28.0,00.0,38.0,31.3,26.7,0000.0,0009.53,0004.94,0004.37
2022-07-03 18:53:00,,0824.6,5.01,0.00,29.3,27.4,00.0,37.9,31.2,26.7,0000.0,0009.52,0004.91,0004.35
2022-07-03 18:54:00,,0824.6,5.01,0.00,29.3,27.1,00.0,37.9,31.1,27.4,0000.0,0009.72,0004.93,0004.35
2022-07-03 18:55:00,,0824.6,5.00,0.00,29.2,27.1,00.0,37.9,31.1,27.6,0000.0,0009.63,0004.97,0004.35
2022-07-03 18:56:00,,0824.6,5.00,0.00,29.2,27.2,00.0,37.9,31.0,27.4,0000.0,0010.63,0004.98,0004.34
2022-07-03 18:57:00,,0824.7,4.99,0.00,29.2,27.4,00.0,37.9,31.0,27.3,0000.0,0010.58,0004.96,0004.34
2022-07-03 18:58:00,,0824.7,4.99,0.00,29.2,27.6,00.0,37.9,31.1,27.2,0000.0,0010.74,0004.94,0004.33
2022-07-03 18:59:00,,0824.6,5.00,0.00,29.2,27.8,00.0,37.9,31.2,25.5,0000.0,0010.54,0004.88,0004.29
